Location: Staunton
(38.1490°N, 79.0720°W)
Time: 11:17:49
(UTC-04:00)

ISS - Pass Details

Date: 26 May 2020
Orbit: 417 x 420 km, 51.6° (Epoch: 26 May)

Event Time Altitude Azimuth Distance (km) Brightness Sun altitude
Rises 23:22:04 0° 317° (NW) 2,365 1.3 -25.0°
Reaches altitude 10° 23:24:26 10° 332° (NNW) 1,499 0.1 -25.2°
Enters shadow 23:26:46 23° 14° (NNE) 934 -1.6 -25.4°
